Back to catalog

SL-24 DEB

AliveSSO
NORAD 39450·DEBRIS·🇷🇺 Russia

Launched Nov 21, 2013 from Dombarovsky

Loading…

Next Passes (next 24 hours)

TLE

FreshSource: Space-Track

Epoch: Sep 14, 2026, 11:18 UTC

1 39450U 13066AL  26257.47110855  .00011638  00000-0  38022-3 0  9997
2 39450  97.3961 263.5194 0004266 346.8427  13.2702 15.31890488701268

Track SL-24 DEB in real time with AllMySat

Download on the App Store